Showing default

SHIYAN 27B, 63600

Orbit data source: Space-Track

SHIYAN 27B, 63600 is a payload satellite owned by CAST (CN) in SSO that was launched on Fri, 18 Apr 2025 UTC via a CHANG ZHENG 6A launch vehicle from the Taiyaun Space Center, China (TSC). Payload-class satellites include a variety of spacecraft equipped with specific instruments for various scientific and technological missions. These include communications satellites like Starlink; space stations such as the ISS; scientific satellites like the Hubble; Earth observation satellites from companies like Planet Labs, Umbra, and HawkEye 360; GPS; miniature CubeSats for education and research; and military/defense satellites.

Loading next visibility...
Identifier
63600, 2025-078B
Orbit
SSO
Country
Flag of CNCN / PRC
Related business
Manufacturer
CAST
Mission
Operational Defense Radar Imaging
Bus & Motor
SW27, Unknown motor
Mass
300 kg wet, ~300 kg dry
Launch date (UTC)
2025-04-18 (10 months ago)
Launch vehicle
CHANG ZHENG 6A
Launch site
Taiyaun Space Center, China (TSC)
Object type
Payload
Rocket body
Debris
Shape & HBR
Box + 1 Pan, 2.2 m
Radar Cross Section
13.200 m², Large (>1 m²)

Expand to show TLE details & history
Last TLE update: 8 hours ago

TLE from 8 hours ago
0 SHIYAN 27B
1 63600U 25078B   26037.65664194  .00000025  00000-0  96526-4 0  9995
2 63600  99.6947  46.7895 0000723  84.6873 275.4348 13.57237493 39827
Epoch: 2026-02-06T15:45Z
TLE epoch observation values (Epoch: 2026-02-06T15:45:33.863Z)
Latitude
-0.00001°
Longitude
33.60703°
Altitude
1,048.494 km
Speed
7.328 km/s
True Right ascension
03h 07m 09s
True Declination
0° 00' 00"
Sunlit
Object was in daylight at epoch
Visualization orbit readout
Latitude
Unknown
Longitude
Unknown
Altitude
Unknown
Speed
Unknown
Apparent Right ascension
Unknown
Apparent Declination
Unknown
Sunlit
N/A
Visualization observer readout
Local Sidereal Time
01:27:56
Azimuth
Unknown
Elevation
Unknown
Doppler factor
Unknown
Orbital elements
Apogee altitude
1,043.577 km
Perigee altitude
1,042.504 km
Semi-major axis
7,421.177 km
Eccentricity
0.00007
Inclination
99.6947°
RAAN
46.7895°
Arg. of periapsis
84.6873°
True anomaly
275.42655°
Mean anomaly
275.4348°
Eccentric anomaly
275.43068°
Mean motion
3.39495 °/min
Orbital period
106.04 mins
BSTAR
0.000096526
Loading maneuver chart data...
Computing Atmospheric mass density...
Loading historical data...
Loading historical data...
Loading historical data...
Loading historical data...
Loading historical data...
Loading historical data...
Loading historical data...

Documentation

Showing up to 5 results
|